Eau Claire, WI

7:36 PM CST on February 10, 2016 (GMT -0600)
Chippewa Valley Regional

Weather History for KEAU - April, 2013

Change the Weather History Date:

Tuesday, April 30, 2013

  Actual Average Record
Temperature  
Mean Temperature 68 °F 52 °F  
Max Temperature 81 °F 65 °F 89 °F (1952)
Min Temperature 54 °F 40 °F 9 °F (1956)
Degree Days  
Heating Degree Days 0 13  
Month to date heating degree days 801 576  
Since 1 July heating degree days 7929 7641  
Cooling Degree Days 3 0  
Month to date cooling degree days 3 4  
Year to date cooling degree days 3 4  
Growing Degree Days 18 (Base 50)    
Moisture  
Dew Point 50 °F    
Average Humidity 58    
Maximum Humidity 86    
Minimum Humidity 29    
Precipitation  
Precipitation T in 0.11 in 2.00 in (1954)
Month to date precipitation 5.38 2.75  
Year to date precipitation 10.77 6.18  
Snow  
Snow 0.00 in 0.00 in 5.50 in (1909)
Month to date snowfall 8.8 1.9  
Since 1 July snowfall 75.0 46.8  
Snow Depth 0.00 in    
Sea Level Pressure  
Sea Level Pressure 29.63 in    
Wind  
Wind Speed 11 mph (SSW)    
Max Wind Speed 26 mph    
Max Gust Speed 32 mph    
Visibility 10 miles    
Events Rain    
T = Trace of Precipitation, MM = Missing Value Source: NWS Daily Summary

Daily Weather History Graph

Daily Weather History Graph

Search for Another Location

Airport or City:

Trip Planner

Search our weather history database for the weather conditions in past years. The results will help you decide how hot, cold, wet, or windy it might be!

Date:

Astronomy

Apr. 30, 2013 Rise Set
Actual Time 5:56 AM CDT 8:10 PM CDT
Civil Twilight 5:24 AM CDT 8:42 PM CDT
Nautical Twilight 4:44 AM CDT 9:22 PM CDT
Astronomical Twilight 4:00 AM CDT 10:07 PM CDT
Moon 12:36 AM CDT (4/30) 10:23 AM CDT (4/30)
Length of Visible Light 15h 18m
Length of Day
14h 13m
Waning Gibbous, 70% of the Moon is Illuminated
Apr 30
Waning Gibbous
May 2
Last Quarter
May 9
New
May 17
First Quarter
May 24
Full

Hourly Weather History & Observations

Time (CDT) Temp. Dew Point Humidity Pressure Visibility Wind Dir Wind Speed Gust Speed Precip Events Conditions
12:56 AM 59.0 °F 52.0 °F 78% 29.60 in 10.0 mi SE 9.2 mph - N/A   Clear
1:56 AM 57.9 °F 52.0 °F 81% 29.56 in 10.0 mi SE 6.9 mph - N/A   Clear
2:56 AM 57.9 °F 52.0 °F 81% 29.55 in 10.0 mi ESE 5.8 mph - N/A   Clear
3:56 AM 57.9 °F 53.1 °F 84% 29.54 in 10.0 mi SE 9.2 mph - N/A   Clear
4:56 AM 57.9 °F 54.0 °F 87% 29.53 in 10.0 mi SSE 6.9 mph - N/A   Clear
5:56 AM 60.1 °F 55.0 °F 83% 29.51 in 10.0 mi SSE 13.8 mph - N/A   Clear
6:56 AM 62.1 °F 55.9 °F 80% 29.51 in 10.0 mi South 11.5 mph - N/A   Partly Cloudy
7:56 AM 64.9 °F 55.9 °F 73% 29.50 in 10.0 mi South 15.0 mph - N/A   Scattered Clouds
8:56 AM 69.1 °F 57.0 °F 65% 29.50 in 10.0 mi South 13.8 mph - 0.00 in   Partly Cloudy
9:56 AM 75.0 °F 55.9 °F 51% 29.49 in 10.0 mi SSW 20.7 mph 32.2 mph N/A   Clear
10:56 AM 77.0 °F 55.0 °F 47% 29.52 in 10.0 mi WSW 17.3 mph 26.5 mph N/A   Partly Cloudy
11:56 AM 78.1 °F 55.0 °F 45% 29.54 in 10.0 mi SW 15.0 mph 25.3 mph N/A   Clear
12:56 PM 79.0 °F 52.0 °F 39% 29.57 in 10.0 mi West 19.6 mph 26.5 mph N/A   Clear
1:56 PM 81.0 °F 46.9 °F 30% 29.61 in 10.0 mi West 13.8 mph 20.7 mph N/A   Clear
2:56 PM 77.0 °F 46.9 °F 34% 29.64 in 10.0 mi West 10.4 mph 19.6 mph N/A   Clear
3:56 PM 75.0 °F 43.0 °F 32% 29.68 in 10.0 mi West 15.0 mph 25.3 mph N/A   Clear
4:56 PM 73.9 °F 42.1 °F 32% 29.71 in 10.0 mi West 17.3 mph 23.0 mph N/A   Clear
5:56 PM 72.0 °F 41.0 °F 33% 29.75 in 10.0 mi West 16.1 mph - N/A   Clear
6:56 PM 66.9 °F 34.0 °F 30% 29.77 in 10.0 mi WNW 13.8 mph 25.3 mph N/A   Clear
7:56 PM 64.0 °F 37.0 °F 37% 29.79 in 10.0 mi NW 5.8 mph - N/A   Clear
8:56 PM 61.0 °F 44.1 °F 54% 29.82 in 10.0 mi Calm Calm - 0.00 in Rain Light Rain
9:56 PM 55.9 °F 51.1 °F 84% 29.86 in 10.0 mi SSE 4.6 mph - 0.00 in Rain Light Rain
10:56 PM 55.0 °F 51.1 °F 86% 29.88 in 10.0 mi WSW 3.5 mph - 0.00 in   Mostly Cloudy